Weather in Voronino

Russia / Tomsk District     56°33′23″N   85°15′15″E
temp.,
°C
wind,
m/s
gust,
m/s
humid.,
%
clouds,
%
prec.,
mm/h
press.,
hPa
HPBL,
m
9 march, tue
tue901:00−8w51290100 1.6 1009726
04:00−11wsw41192100 0.1 1014504
07:00−10sw51193100 0.1 1018586
10:00−11sw61191100 0.2 1020736
13:00−9sw61184100 0.3 1022835
16:00−7ssw6118199 0.0 1022929
19:00−9ssw6128499 0.0 1021740
22:00−10ssw5138598 0.0 1020605
10 march, wed
wed1001:00−11ssw5158697 0.0 1019568
04:00−12ssw5138733 0.0 1018480
07:00−13ssw5128948 0.0 1017427
10:00−11sw5118889 0.0 1017491
13:00−8sw478894 0.0 1017527
16:00−6ssw3587100 0.0 1016498
19:00−8sse2492100 0.0 101498
22:00−6se3893100 0.0 1010276
11 march, thu
thu1101:00−1se41390100 0.0 1003616
04:000ssw61397100 2.1 999979
07:00+1sw71498100 2.9 9981075
10:00−6sw8158999 0.2 1002927
13:00−6wsw81385100 0.4 1007992
16:00−5sw61187100 0.1 10101046
19:00−6sw61288100 0.4 10121056
22:00−8sw61389100 0.1 1014770
12 march, fri
fri1201:00−9ssw51391100 0.1 1015595
04:00−9sse51486100 0.1 1010625
07:00−5ssw71675100 1.9 10071472
10:00−10sw8148094 0.0 10081032
13:00−10sw7128497 0.1 10111180
16:00−12sw61082100 0.3 10121206
19:00−14sw51088100 0.4 1013946
22:00−15wsw51093100 0.3 10141103
13 march, sat
sat1301:00−18wsw61192100 0.6 10161029
04:00−20wsw61290100 0.1 1019747
07:00−22wsw41194100 0.1 1023519
10:00−22sw51093100 0.0 1026504
13:00−17sw51087100 0.0 1026624
16:00−14sw6118043 0.0 1026828
19:00−15sw5128668 0.0 1026672
22:00−17sw51391100 0.0 1027572